Regional Weather Roundup
Issued by NWS

Home | Current Version | Previous Version | Graphics & Text | Print | Product List | Glossary Off
Versions: 1 2 3 4 5 6 7 8 9 10 11 12 13 14 15 16 17 18 19 20 21 22 23 24 25 26 27 28 29 30 31 32 33 34 35 36 37 38 39 40 41 42 43 44 45 46 47 48 49 50

000
ASUS43 KMKX 021700
RWRWI

WISCONSIN REGIONAL WEATHER ROUNDUP
NATIONAL WEATHER SERVICE MILWAUKEE/SULLIVAN WI
1200 PM CDT MON MAY 02 2016

NOTE: "FAIR" INDICATES FEW OR NO CLOUDS BELOW 12,000 FEET WITH NO
SIGNIFICANT WEATHER AND/OR OBSTRUCTIONS TO VISIBILITY.

WIZ001-002-006>008-014>016-023>028-021800-
NORTHWEST WISCONSIN

CITY           SKY/WX    TMP DP  RH WIND       PRES   REMARKS
SUPERIOR ARPT  SUNNY     57  36  45 E5        30.10F
ASHLAND        SUNNY     60  38  43 N12       30.11F
HAYWARD        SUNNY     59  31  34 CALM      30.09S
SIREN          SUNNY     60  30  31 N6        30.09F
CUMBERLAND     SUNNY     57  36  44 CALM      30.09F
RICE LAKE      SUNNY     59  35  39 NW3       30.10F
CHETEK         SUNNY     59  35  40 SW5       30.10S
LADYSMITH      SUNNY     59  34  38 CALM      30.12S
EAU CLAIRE     NOT AVBL
MENOMONIE      SUNNY     64  37  36 CALM      30.10S
NEW RICHMOND   SUNNY     60  36  40 W3        30.10F
OSCEOLA        SUNNY     60  35  39 NE5       30.13S
$$

WIZ003>005-009-010-017-018-021800-
NORTH CENTRAL WISCONSIN

CITY           SKY/WX    TMP DP  RH WIND       PRES   REMARKS
MANITOWISH WTR CLOUDY    56  32  40 CALM      30.08F
ARBOR VITAE    PTSUNNY   57  31  37 CALM      30.09S
WOODRUFF       PTSUNNY   57  31  37 CALM      30.09S
RHINELANDER    CLOUDY    57  31  37 CALM      30.09S
EAGLE RIVER    MOSUNNY   59  28  31 N6G17     30.08F
LAND O LAKES   PTSUNNY   56  28  33 N6        30.09F
PHILLIPS       MOSUNNY   56  33  40 W3        30.09S
TOMAHAWK       MOSUNNY   58  32  37 E6        30.09S
MEDFORD        PTSUNNY   56  36  46 NW7       30.10S
MERRILL        PTSUNNY   58  33  38 CALM      30.10S
$$

WIZ029-030-035-036-043>047-021800-
CENTRAL WISCONSIN

CITY           SKY/WX    TMP DP  RH WIND       PRES   REMARKS
WAUSAU         MOSUNNY   61  31  32 SW6       30.07F
MOSINEE        PTSUNNY   59  32  36 NW6       30.11S
MARSHFIELD     PTSUNNY   58  34  40 CALM      30.09F
STEVENS POINT  MOSUNNY   58  31  36 CALM      30.10S
WAUPACA        SUNNY     61  30  31 CALM      30.10S
WAUTOMA        SUNNY     60  29  30 NE8       30.09F
WISC RAPIDS    PTSUNNY   59  29  31 N6        30.11F
CAMP DOUGLAS   NOT AVBL
$$

WIZ011>013-019>022-031-037>040-048>050-021800-
NORTHEAST WISCONSIN

CITY           SKY/WX    TMP DP  RH WIND       PRES   REMARKS
ANTIGO         MOSUNNY   56  32  39 N8        30.09S
SHAWANO        SUNNY     62  31  30 NE6       30.09S
OCONTO         SUNNY     59  33  37 NE3       30.08S
STURGEON BAY   SUNNY     55  34  44 N12       30.11S
GREEN BAY      LGT RAIN  61  37  41 E8        30.09S
MANITOWOC      NOT AVBL
APPLETON       MOSUNNY   57  30  35 N8        30.08S
CLINTONVILLE   SUNNY     59  28  31 NE8       30.09S
OSHKOSH        SUNNY     58  37  45 NE8       30.09S
$$

WIZ032>034-041-042-053>061-021800-
SOUTHWEST WISCONSIN

CITY           SKY/WX    TMP DP  RH WIND       PRES   REMARKS
LA CROSSE      SUNNY     61  35  37 S7        30.10F
SPARTA         MOSUNNY   61  38  42 SE5       30.11F
VIROQUA        SUNNY     58  36  44 CALM      30.10F
BOSCOBEL       SUNNY     61  37  41 VRB5      30.11S
PRAIRIE DU CHI SUNNY     56  45  67 S3        30.11F
PLATTEVILLE    PTSUNNY   57  44  61 N5        30.10S
$$

WIZ056-057-062-063-064-067-068-021800-
SOUTH CENTRAL WISCONSIN

CITY           SKY/WX    TMP DP  RH WIND       PRES   REMARKS
REEDSBURG      SUNNY     57  36  44 NW3       30.09F
BARABOO/DELLS  MOSUNNY   58  33  39 NE8       30.09F
LONE ROCK      NOT AVBL
MINERAL POINT  SUNNY     59  36  41 E5        30.09S
MADISON        PTSUNNY   59  39  47 NE12      30.08F
MIDDLETON      SUNNY     58  40  51 NE8       30.09F
WATERTOWN      MOSUNNY   59  39  48 NE9G16    30.07F
MONROE         MOSUNNY   55  37  50 NE8       30.08S
JANESVILLE     PTSUNNY   61  37  41 E12G17    30.06F
$$

WIZ051-052-058>065-066-070>072-021800-
SOUTHEAST WISCONSIN

CITY           SKY/WX    TMP DP  RH WIND       PRES   REMARKS
MILWAUKEE      PTSUNNY   52  39  61 NE8       30.08F
WAUKESHA       MOSUNNY   54  36  50 NE9G17    30.09S
MILWAUKEE/TIMM SUNNY     55  30  38 NE9       30.08F
RACINE         SUNNY     52  39  61 N13       30.09F
BURLINGTON     SUNNY     57  36  44 NE13G20   30.06F
KENOSHA        SUNNY     58  39  49 N9        30.07F
FOND DU LAC    SUNNY     59  38  45 NE13      30.09F
SHEBOYGAN      SUNNY     56  40  55 E5        30.08F
WEST BEND      MOSUNNY   57  32  38 N3        30.07F
JUNEAU         SUNNY     57  37  46 NE9       30.09F
$$

LSZ147-162-021800-
LAKE SUPERIOR

STATION/POSITION TIME  TEMP    WIND        PRES    WAVE
                       AIR SEA DIR/SP/G            HT/PER
                 (UTC) (F)     (DEG/KT/KT) (MB)    (FT/S)
W MID LAKE BUOY  1550   38 37  170/  2/  2 1020.9F   1
DEVILS ISLAND    1600   41     340/  3/  3 1020.7F
SAXON HARBOR     1640   42      30/  3/  5 1019.6F
$$

LMZ867-665-643>646-021800-
LAKE MICHIGAN

STATION/POSITION TIME  TEMP    WIND        PRES    WAVE
                       AIR SEA DIR/SP/G            HT/PER
                 (UTC) (F)     (DEG/KT/KT) (MB)    (FT/S)
CHAMBERS ISLAND  1600   49      70/  4/  6 1019.0F
N MID LAKE BUOY  1550   40 39  290/  2/  2 1018.9F   0
NORTHPORT PIER   1600   46     320/  8/  9 1018.6F
KEWAUNEE LAKESHO 1600   46      50/  5/  7 1018.2R
SHEBOYGAN LAKESH 1600   43      50/ 10/ 10 1019.9R
PORT WASHINGTON  1600   49      50/  9/ 11 1019.6
S MID LAKE BUOY  1550   41 40  340/  8/  8 1018.3R   1/ 4
KENOSHA   LAKESH 1600   45      30/ 14/ 15 1018.3S
$$

TC  - TEMPERATURE IN CELSIUS
VSB - VISIBILITY IN STATUTE MILES
WCI - WIND CHILL INDEX
HX  - HEAT INDEX




USA.gov is the U.S. government's official web portal to all federal, state and local government web resources and services.